Location: Guayaquil
(2.1667°S, 79.9000°W)
Time: 21:59:13
(UTC-05:00)

Hubble Space Telescope - Visible Passes

Search period start: 20 November 2017 00:00
Search period end: 30 November 2017 00:00
Orbit: 537 x 541 km, 28.5° (Epoch: 20 November)

Date Brightness Start Highest point End Pass type
(mag) Time Alt. Az. Time Alt. Az. Time Alt. Az.
23 Nov 3.8 20:34:24 10° SSW 20:34:48 12° SSW 20:34:48 12° SSW visible
24 Nov 3.3 20:23:51 10° SW 20:25:11 18° SSW 20:25:11 18° SSW visible
25 Nov 2.6 20:13:24 10° SW 20:15:35 27° SSW 20:15:35 27° SSW visible
26 Nov 1.8 20:03:03 10° SW 20:06:02 44° SSW 20:06:02 44° SSW visible
27 Nov 0.9 19:52:48 10° WSW 19:56:31 70° WSW 19:56:31 70° WSW visible
28 Nov 0.9 19:42:39 10° WSW 19:46:45 58° NNW 19:47:01 57° N visible
29 Nov 1.6 19:32:37 10° W 19:36:32 40° NNW 19:37:33 33° N visible
